Regional Weather Roundup
Issued by NWS

Home | Current Version | Previous Version | Text Only | Print | Product List | Glossary On
Versions: 1 2 3 4 5 6 7 8 9 10 11 12 13 14 15 16 17 18 19 20 21 22 23 24 25 26 27 28 29 30 31 32 33 34 35 36 37 38 39 40 41 42 43 44 45 46 47 48 49 50
000
ASUS45 KABQ 290010
RWRNM
NEW MEXICO REGIONAL WEATHER ROUNDUP
NATIONAL WEATHER SERVICE ALBUQUERQUE NM
600 PM MDT FRI AUG 28 2015

NOTE: "FAIR" MEANS FEW OR NO CLOUDS BELOW 12,000 FEET AGL WITH NO
       SIGNIFICANT WEATHER OR OBSTRUCTIONS TO VISION.

      THIS PRODUCT IS RELEASED AS TWO VERSIONS.  ONE VERSION NEAR
      THE TOP OF THE HOUR CONTAINING PRELIMINARY DATA FROM ALBUQUERQUE
      AND OTHER STATIONS.  A FINAL VERSION WITH ADDITIONAL DATA IS
      ISSUED ABOUT 10 MINUTES AFTER THE HOUR.

NMZ501-503-504-510>518-290100-
NORTHWEST PLATEAU/NORTHCENTRAL MOUNTAINS

CITY           SKY/WX    TMP DP  RH WIND       PRES   REMARKS
FARMINGTON     SUNNY     90  30  11 W10       30.11S
6HR MIN TEMP:  78; 6HR MAX TEMP:  92;

LOS ALAMOS     MOSUNNY   77  35  21 CALM      30.29S
SANTA FE       PTSUNNY   80  42  25 E18G26    30.22R
6HR MIN TEMP:  80; 6HR MAX TEMP:  86;

TAOS           PTSUNNY   75  41  29 E25G31    30.29S
ANGEL FIRE     FAIR      57  50  75 CALM      30.45S

$$
NMZ402-403-502-505>509-290100-
WESTCENTRAL MOUNTAINS/SOUTHWEST MOUNTAINS

CITY           SKY/WX    TMP DP  RH WIND       PRES   REMARKS
GALLUP         MOSUNNY   82  41  23 S7        30.23F
6HR MIN TEMP:  80; 6HR MAX TEMP:  87;

GRANTS         MOSUNNY   82  39  21 N9        30.23F
SILVER CITY      N/A     84  48  28 E5        30.16S

$$
NMZ407-409-411-412-290100-
SOUTHERN DESERTS

CITY           SKY/WX    TMP DP  RH WIND       PRES   REMARKS
LORDSBURG      FAIR      91  46  21 W7        30.03S
DEMING         PTSUNNY   91  45  20 VRB3      30.03F
6HR MIN TEMP:  83; 6HR MAX TEMP:  95;

LAS CRUCES     PTSUNNY   85  51  30 NE8       30.06F
HOLLOMAN AFB   CLOUDY    85  49  28 E20G26    30.01F
ALAMOGORDO     CLOUDY    86  50  28 NE18G32   30.04S
T OR C         CLOUDY    88  50  27 SW3       30.06F
6HR MIN TEMP:  87; 6HR MAX TEMP:  90;


$$
NMZ519>523-290100-
CENTRAL VALLEYS/CENTRAL HIGHLANDS

CITY           SKY/WX    TMP DP  RH WIND       PRES   REMARKS
ALBUQUERQUE    MOSUNNY   83  49  30 E26G35    30.12S
6HR MIN TEMP:  81; 6HR MAX TEMP:  91;

DOUBLE EAGLE   PTSUNNY   88  46  23 NE12G17   30.16F
MORIARTY ARPT  MOCLDY    69  47  45 NE14G22   30.25S
6HR MIN TEMP:  69; 6HR MAX TEMP:  84;

CLINES CORNERS CLOUDY    64  49  57 NE16      30.29S
6HR MIN TEMP:  60; 6HR MAX TEMP:  81; 6HR PCP:  0.38;

BELEN          FAIR      90  39  16 E9        30.10S
6HR MIN TEMP:  82; 6HR MAX TEMP:  92;

SOCORRO        FAIR      88  42  20 E3        30.08S
6HR MIN TEMP:  84; 6HR MAX TEMP:  92;


$$
NMZ524>526-539-540-290100-
SOUTHCENTRAL MOUNTAINS

CITY           SKY/WX    TMP DP  RH WIND       PRES   REMARKS
RUIDOSO        CLOUDY    66  54  63 MISG      30.30F

$$
NMZ527>531-290100-
NORTHEAST HIGHLANDS/NORTHEAST PLAINS

CITY           SKY/WX    TMP DP  RH WIND       PRES   REMARKS
LAS VEGAS      CLOUDY    68  48  48 SW8       30.31R
6HR MIN TEMP:  63; 6HR MAX TEMP:  80; 6HR PCP:  0.02;

RATON          CLOUDY    77  45  32 NE5       30.25S
6HR MIN TEMP:  77; 6HR MAX TEMP:  85;

CLAYTON        CLOUDY    74  63  68 S7        30.17F
6HR MIN TEMP:  68; 6HR MAX TEMP:  87; 6HR PCP:  0.06;


$$
NMZ532>537-290100-
EASTCENTRAL PLAINS

CITY           SKY/WX    TMP DP  RH WIND       PRES   REMARKS
TUCUMCARI      PTSUNNY   88  55  32 NE13      30.06R
6HR MIN TEMP:  88; 6HR MAX TEMP:  93;

CANNON AFB     MOSUNNY   87  56  35 NE14      30.05S
6HR MIN TEMP:  86; 6HR MAX TEMP:  91; 6HR PCP: TRACE;

CLOVIS AIRPORT MOSUNNY   86  55  35 NE17      30.07S

$$
NMZ028-029-538-290100-
SOUTHEAST PLAINS

CITY           SKY/WX    TMP DP  RH WIND       PRES   REMARKS
ROSWELL        CLOUDY    90  54  29 W12       29.99F
6HR MIN TEMP:  85; 6HR MAX TEMP:  95;

ARTESIA        CLOUDY    90  50  25 SW8       29.99F
CARLSBAD       NOT AVBL


$$


USA.gov is the U.S. government's official web portal to all federal, state and local government web resources and services.